045  
ASUS44 KMAF 201710  
RWRMAF  
MIDLAND AREA WEATHER ROUNDUP  
NATIONAL WEATHER SERVICE MIDLAND TX  
1200 PM CDT MON AUG 20 2018  
   
..IN SOUTHWEST TEXAS AND SOUTHEAST NEW MEXICO
 
 
 
CITY SKY/WX TMP DP RH WIND PRES REMARKS
 
ALPINE FAIR 76 63 64 N14 30.31F  
ANDREWS CLOUDY 73 69 87 NE7 30.22F  
ARTESIA CLOUDY 73 64 73 VRB5 30.26S  
BIG SPRING FAIR 79 58 48 NE12G18 30.19F  
CARLSBAD N/A 72 63 73 MISG 30.21F  
DRYDEN NOT AVBL  
FORT STOCKTON FAIR 83 66 56 NE8 30.16F  
GUAD PASS FAIR 72 57 59 NE29 30.31R  
HOBBS MOSUNNY 75 61 60 NE12 30.24F  
LAMESA FAIR 77 61 57 NE9G20 30.21F  
MARFA N/A 75 63 66 NE23 30.28S  
MIDLAND AIRPK N/A 84 62 46 NE12 30.19F  
MIDLAND INTL FAIR 78 61 55 NE8 30.19S  
ODESSA FAIR 78 64 61 NE14 30.20S  
PECOS FAIR 86 60 40 NE9 30.16F  
PRESIDIO FAIR 89 64 43 S3 30.12S  
SEMINOLE FAIR 73 60 63 NE6 30.25S  
SNYDER FAIR 79 58 49 N8 30.17S  
WINK FAIR 76 66 71 NE9 30.17S  

   
..OTHER STATIONS IN TEXAS
 
 
 
CITY SKY/WX TMP DP RH WIND PRES REMARKS
 
ABILENE NOT AVBL  
AMARILLO FAIR 72 51 47 N14 30.25R  
AUSTIN FAIR 92 70 48 SW12 30.02F  
BROWNSVILLE PTSUNNY 93 74 53 SE18G25 30.00R HX 103  
CORPUS CHRISTI PTSUNNY 91 75 59 S14G24 30.00S HX 101  
DALLAS FTW FAIR 86 61 42 NW14 30.01R  
DEL RIO NOT AVBL  
EL PASO PTSUNNY 86 58 38 E18G24 30.16S  
HOUSTON INT FAIR 91 75 59 SW9 30.01F HX 101  
LUBBOCK PTSUNNY 77 54 44 N17 30.21F  
SAN ANGELO FAIR 88 68 51 NE6 30.10S  
SAN ANTONIO PTSUNNY 86 72 62 SW6 30.05S  
WACO FAIR 93 71 48 W8 30.01F HX 100  
WICHITA FALLS CLOUDY 69 62 78 NW20G30 29.99R  

   
..OTHER LOCATIONS IN NEW MEXICO
 
 
 
CITY SKY/WX TMP DP RH WIND PRES REMARKS
 
ALAMOGORDO FAIR 84 55 37 W7 30.21R  
ALBUQUERQUE FAIR 76 52 43 SE5 30.30S  
CANNON AFB PTSUNNY 73 58 59 NE14 30.30S  
CLOVIS PTSUNNY 72 55 55 NE12G18 30.29F HAZE  
HOLLOMAN AFB FAIR 89 57 33 SW7 30.21R  
ROSWELL CLOUDY 76 57 51 NE8 30.26F  
RUIDOSO N/A 63 52 67 SE9 30.45S  
SANTA FE FAIR 72 50 45 S17G23 30.37S  
TRUTH OR CONSE FAIR 82 55 39 NE8 30.24S  
TUCUMCARI PTSUNNY 72 54 53 E8 30.27S  

 
 
 
CLICK HERE TO GO TO PREVIOUS BULLETINS.

The Nexlab TX Page
The Nexlab NM Page Main Text Page